Temp
41 41 40 41 42 42 41 41 39 33 35 40 38 41 41 41 45 42 43 48 50 51 51 51 51 50 51 51 51 53 54 54 54 56 58 59 62 64
42 41 40 41 42 41 41 41 39 36 32 38 38 38 40 44 45 41 42 46 48 49 50 49 50 50 50 50 51 52 51 51 51 53 55 57 58 59
41 41 40 42 40 40 40 40 39 37 33 36 39 39 38 38 39 40 42 40 41 48 49 49 49 49 49 50 50 50 49 49 49 52 53 54 56 56
40 40 39 45 39 39 38 38 38 38 35 32 35 36 37 38 38 37 42 45 41 48 48 48 49 49 49 49 49 48 48 48 49 50 52 52 53 54
41 40 40 39 37 36 36 36 37 41 36 34 32 35 35 37 36 37 39 38 43 47 47 48 48 48 48 49 49 47 47 47 48 48 48 49 50 51
42 40 40 39 36 35 37 35 38 35 35 33 33 33 33 36 35 33 33 35 36 43 44 46 46 46 47 48 48 46 46 46 48 48 48 46 46 49
40 41 40 40 42 40 39 34 34 33 32 31 31 31 31 31 31 32 31 32 33 35 35 36 37 37 39 43 45 46 46 46 46 46 46 47 47 46
37 38 39 41 41 43 43 43 41 34 32 31 29 29 29 31 31 31 32 33 27 35 34 32 35 34 36 38 45 45 45 45 45 45 45 45 45 46
36 36 37 42 40 38 40 41 41 43 43 38 34 32 32 33 36 32 34 33 33 34 33 30 32 31 35 40 43 44 44 44 44 44 45 45 45 45
35 36 36 35 36 37 36 34 36 37 38 39 37 37 35 35 35 35 31 32 31 31 33 28 29 29 31 33 42 43 44 43 44 44 44 44 44 44
36 37 37 36 40 42 36 33 34 36 42 43 43 43 43 43 42 37 29 31 27 27 31 28 27 27 28 30 32 42 43 42 42 42 43 43 43 43
36 37 42 40 41 41 36 34 32 33 34 35 37 34 38 36 42 34 30 25 24 25 29 26 28 28 24 27 29 32 34 38 40 41 41 41 41 37
34 34 36 42 43 42 41 36 35 37 37 34 30 30 31 31 31 31 31 27 25 27 30 31 28 27 28 28 27 29 31 31 30 33 37 38 40 39
34 35 35 41 42 41 40 40 40 39 34 29 28 27 27 27 26 27 30 29 33 32 34 33 28 28 26 26 26 28 29 30 28 28 28 34 37 39
37 37 40 41 41 39 39 39 40 34 30 28 28 27 26 25 29 28 29 29 29 31 33 30 28 28 28 26 26 27 28 27 28 27 25 27 29 30
38 36 37 38 39 38 37 35 33 30 28 27 27 28 28 27 30 30 30 30 29 28 30 30 29 29 27 28 27 25 26 23 26 27 27 28 29 30
35 33 32 31 31 31 31 31 30 29 28 27 28 31 31 31 30 30 29 28 26 26 27 30 31 31 29 28 25 26 26 25 26 26 26 25 28 29
34 31 30 30 30 30 30 29 28 30 27 30 30 29 28 27 26 27 27 26 24 25 24 25 26 26 26 27 32 26 27 26 26 26 27 24 25 28
32 31 30 29 30 29 28 26 25 27 30 29 28 27 26 26 26 25 25 25 24 25 24 24 23 23 20 18 25 35 25 25 25 25 26 26 24 27
31 30 29 29 29 27 26 25 25 28 28 27 26 26 26 25 24 24 23 22 22 23 23 23 21 23 21 20 21 24 33 25 24 24 24 26 28 33
30 29 29 28 27 26 26 25 28 28 27 26 26 25 26 25 24 23 24 28 28 26 24 24 26 32 27 26 22 23 26 32 31 25 24 22 22 24
29 28 28 27 26 24 24 25 27 27 26 26 25 26 26 26 24 24 24 24 24 25 25 26 27 27 25 23 22 23 24 26 29 33 33 32 25 21
28 27 27 27 25 24 23 27 26 26 26 26 25 26 26 25 25 25 25 26 26 25 26 25 26 27 25 25 25 23 23 23 24 23 24 31 33 34
MSLP
1018.52 1018.41 1018.26 1017.95 1017.76 1017.59 1017.45 1017.35 1017.11 1016.71 1016.56 1015.81 1015.65 1015.35 1015.01 1014.64 1014.08 1013.67 1013.14 1012.65 1012.28 1011.85 1011.68 1011.09 1010.15 1009.59 1010.34 1010.38 1010.17 1009.90 1008.86 1009.02 1008.39 1008.76 1008.34 1007.13 1006.32 1005.83
1018.31 1018.25 1018.14 1017.93 1017.66 1017.35 1017.17 1017.16 1017.07 1016.99 1016.71 1016.09 1015.93 1015.53 1015.16 1014.79 1014.37 1013.98 1013.49 1013.03 1012.45 1012.08 1011.78 1010.89 1010.51 1010.01 1010.82 1010.36 1010.56 1010.23 1010.17 1009.77 1009.24 1008.12 1008.59 1008.05 1007.39 1007.31
1018.35 1018.30 1018.16 1017.90 1017.67 1017.40 1017.10 1016.90 1016.96 1016.77 1016.72 1016.21 1015.94 1015.43 1015.14 1014.88 1014.61 1014.23 1013.77 1013.42 1012.90 1012.15 1011.63 1010.79 1011.14 1011.13 1011.19 1010.84 1010.84 1010.23 1010.23 1010.23 1009.78 1008.44 1008.76 1008.41 1008.50 1008.31
1018.29 1018.12 1017.97 1017.83 1017.83 1017.49 1017.32 1016.93 1017.00 1016.65 1016.58 1016.34 1015.91 1015.56 1015.22 1014.83 1014.57 1014.34 1013.91 1013.31 1013.01 1012.42 1012.06 1011.98 1011.82 1011.22 1011.12 1010.85 1010.70 1010.59 1010.33 1010.12 1009.87 1009.23 1008.99 1009.28 1008.88 1008.89
1018.02 1018.08 1017.98 1017.77 1017.83 1017.84 1017.47 1017.21 1016.80 1016.69 1016.49 1016.44 1016.24 1015.70 1015.35 1014.93 1014.67 1014.39 1014.14 1013.90 1013.29 1012.74 1012.58 1012.23 1011.89 1011.54 1011.00 1010.89 1010.94 1010.78 1010.82 1010.52 1010.11 1010.21 1009.73 1009.44 1008.93 1009.46
1017.51 1017.76 1017.73 1017.77 1017.65 1017.87 1017.61 1017.26 1016.80 1016.87 1016.64 1016.46 1016.27 1015.89 1015.50 1014.97 1014.76 1014.67 1014.58 1014.28 1013.86 1013.25 1012.74 1012.39 1012.09 1011.65 1011.61 1011.30 1010.92 1010.77 1010.74 1010.88 1010.28 1010.31 1010.25 1009.88 1009.70 1009.70
1017.04 1017.02 1017.03 1017.22 1017.28 1017.22 1017.40 1017.21 1017.11 1016.83 1016.86 1016.66 1016.50 1016.20 1015.74 1015.36 1015.16 1014.96 1014.79 1014.54 1014.15 1013.59 1013.37 1013.14 1013.02 1012.95 1012.47 1011.83 1011.47 1011.19 1011.03 1010.70 1010.32 1010.61 1010.56 1010.14 1009.74 1009.55
1016.93 1016.88 1016.94 1016.95 1016.92 1016.80 1016.84 1016.59 1016.66 1016.34 1016.43 1016.54 1016.36 1016.29 1015.96 1015.39 1015.04 1014.91 1014.71 1014.52 1014.34 1013.78 1013.82 1013.47 1012.95 1012.44 1012.17 1012.08 1011.76 1011.61 1011.32 1011.00 1010.84 1010.45 1010.29 1010.11 1009.57 1009.76
1016.23 1016.47 1016.54 1016.39 1016.59 1016.63 1016.49 1016.41 1016.32 1015.82 1015.57 1015.67 1015.70 1015.83 1015.63 1015.35 1014.99 1014.74 1014.64 1014.55 1014.25 1013.97 1013.82 1013.19 1012.82 1012.63 1012.21 1011.77 1011.46 1011.19 1011.00 1010.94 1010.85 1010.59 1010.33 1009.99 1009.75 1009.58
1015.78 1015.96 1016.10 1016.12 1016.11 1016.12 1016.07 1016.09 1015.93 1015.67 1015.43 1015.35 1015.10 1015.12 1015.01 1014.85 1014.73 1014.50 1014.40 1014.30 1014.03 1013.86 1013.66 1013.09 1012.62 1012.41 1011.94 1011.70 1011.33 1011.23 1010.99 1011.01 1010.97 1010.63 1010.19 1009.76 1009.50 1009.32
1015.21 1015.40 1015.50 1015.60 1015.60 1015.63 1015.55 1015.62 1015.53 1015.29 1014.83 1014.68 1014.47 1014.42 1014.32 1014.13 1013.86 1013.80 1014.09 1014.16 1014.03 1013.76 1013.25 1013.10 1012.74 1012.40 1011.85 1011.30 1011.13 1010.87 1010.89 1011.07 1010.78 1010.45 1010.11 1009.64 1009.47 1008.95
1014.56 1014.70 1014.73 1014.82 1014.98 1015.11 1015.06 1015.12 1015.06 1014.89 1014.69 1014.57 1014.40 1014.40 1014.30 1014.00 1013.54 1013.64 1013.79 1014.14 1014.15 1013.81 1013.18 1013.39 1013.14 1013.04 1012.29 1011.47 1011.33 1011.09 1011.16 1011.03 1010.72 1010.39 1010.04 1009.71 1009.51 1009.15
1014.11 1014.21 1014.25 1014.25 1014.25 1014.39 1014.43 1014.46 1014.48 1014.40 1014.25 1014.30 1014.31 1014.36 1014.18 1013.93 1013.69 1013.55 1013.56 1013.81 1013.91 1013.81 1013.35 1013.34 1013.30 1013.28 1013.15 1012.30 1011.49 1011.30 1011.14 1010.76 1010.70 1010.40 1010.09 1009.70 1009.28 1008.96
1013.52 1013.64 1013.77 1013.81 1013.81 1013.88 1013.88 1013.89 1013.84 1013.80 1013.92 1014.12 1014.26 1014.25 1014.14 1014.00 1013.51 1013.46 1013.38 1013.41 1013.27 1013.29 1013.14 1013.19 1013.15 1013.17 1012.95 1012.33 1011.61 1010.93 1010.72 1010.53 1010.33 1009.94 1009.72 1009.28 1008.78 1008.25
1012.90 1013.10 1013.23 1013.33 1013.35 1013.34 1013.43 1013.41 1013.35 1013.54 1013.76 1013.91 1013.99 1013.95 1013.84 1013.44 1013.25 1013.16 1013.00 1012.97 1012.88 1012.59 1012.46 1012.48 1012.54 1012.43 1012.36 1011.86 1011.22 1010.79 1010.33 1009.85 1009.87 1009.37 1009.21 1009.00 1008.59 1008.22
1012.22 1012.43 1012.65 1012.80 1012.87 1012.85 1012.83 1012.94 1012.98 1013.12 1013.37 1013.52 1013.56 1013.50 1013.34 1013.09 1013.01 1012.88 1012.73 1012.56 1012.43 1012.10 1011.89 1011.82 1011.80 1011.78 1011.41 1011.06 1010.80 1010.23 1010.19 1010.14 1009.08 1008.96 1008.69 1008.21 1007.75 1007.36
1011.85 1012.08 1012.27 1012.41 1012.49 1012.54 1012.60 1012.55 1012.55 1012.69 1012.84 1013.01 1013.10 1013.11 1012.89 1012.70 1012.61 1012.52 1012.38 1012.24 1012.08 1011.68 1011.33 1011.21 1011.01 1010.91 1010.72 1010.50 1009.95 1009.40 1009.08 1008.96 1008.54 1008.32 1008.23 1007.45 1006.87 1006.56
1011.20 1011.32 1011.59 1011.82 1011.90 1011.95 1012.05 1012.16 1012.27 1012.46 1012.61 1012.55 1012.71 1012.71 1012.60 1012.54 1012.37 1012.15 1011.97 1011.80 1011.49 1011.06 1010.77 1010.58 1010.46 1010.21 1009.81 1009.26 1008.91 1008.41 1008.18 1007.90 1007.67 1007.54 1007.38 1006.95 1005.92 1005.68
1010.51 1010.76 1010.93 1011.15 1011.31 1011.41 1011.55 1011.73 1011.90 1012.09 1012.07 1012.24 1012.36 1012.33 1012.30 1012.16 1011.94 1011.74 1011.44 1011.18 1010.76 1010.40 1009.98 1009.88 1009.78 1009.70 1009.13 1008.30 1007.40 1007.11 1007.09 1006.88 1006.82 1006.63 1006.35 1006.00 1005.27 1004.66
1009.84 1010.19 1010.30 1010.44 1010.77 1010.93 1011.11 1011.28 1011.39 1011.58 1011.81 1011.93 1011.94 1011.92 1011.87 1011.69 1011.34 1011.03 1010.82 1010.55 1010.12 1009.63 1009.20 1008.96 1008.87 1008.57 1008.27 1007.44 1006.94 1006.20 1006.24 1006.09 1005.97 1005.64 1005.15 1004.87 1004.37 1003.86
1009.30 1009.59 1009.79 1009.82 1010.14 1010.52 1010.67 1010.86 1010.87 1011.12 1011.30 1011.41 1011.38 1011.33 1011.23 1011.06 1010.65 1010.40 1010.07 1009.47 1009.02 1008.58 1008.16 1007.63 1007.08 1006.97 1006.86 1006.83 1006.19 1005.10 1004.76 1004.81 1004.72 1004.62 1004.23 1004.05 1003.49 1003.03
1008.57 1008.87 1009.09 1009.35 1009.59 1009.96 1010.19 1010.28 1010.49 1010.68 1010.84 1010.86 1010.79 1010.69 1010.48 1010.32 1010.01 1009.65 1009.22 1008.73 1008.10 1007.63 1007.01 1006.37 1006.01 1005.98 1005.92 1005.67 1004.91 1004.29 1003.77 1003.65 1003.57 1003.31 1002.99 1002.79 1002.59 1001.93
1007.91 1008.25 1008.52 1008.81 1009.09 1009.39 1009.60 1009.77 1010.00 1010.17 1010.24 1010.23 1010.18 1010.01 1009.81 1009.57 1009.26 1008.85 1008.34 1007.74 1007.14 1006.44 1005.84 1005.21 1004.88 1004.77 1004.39 1004.20 1003.75 1003.36 1003.07 1002.71 1002.60 1002.36 1001.54 1001.29 1000.95 1000.58
Wind_Speed
4 4 3 3 3 2 2 2 2 2 4 3 3 4 4 4 9 6 7 17 18 19 19 19 21 21 18 17 16 17 17 17 20 19 19 20 19 14
2 4 4 3 4 2 2 2 2 1 3 4 3 3 5 5 9 6 6 11 17 18 17 18 20 20 17 15 14 13 16 17 18 17 21 20 21 19
3 3 5 5 4 3 3 2 2 1 2 3 3 3 5 4 5 5 5 4 5 16 16 19 18 17 16 15 14 15 16 17 16 17 15 20 18 19
4 3 5 3 6 5 4 4 3 3 1 5 3 3 2 3 4 4 5 4 5 11 13 15 16 17 16 14 14 16 17 16 15 17 15 15 19 19
4 3 5 3 4 4 4 5 3 4 3 2 4 2 2 3 3 2 4 4 5 10 9 14 17 19 18 15 13 15 17 17 14 12 15 15 15 18
3 4 4 4 1 5 5 5 4 4 3 3 4 3 2 4 2 2 4 3 6 5 6 10 15 18 17 16 14 14 17 17 12 13 14 13 15 15
4 4 4 4 5 5 4 4 5 3 3 3 4 4 4 4 3 3 2 3 4 2 3 3 2 2 5 10 10 14 17 16 12 10 15 15 15 14
4 4 3 5 8 6 10 9 8 4 4 3 2 4 5 4 2 3 3 7 4 2 6 4 3 4 4 3 12 14 17 14 12 11 16 16 16 15
5 4 3 4 4 5 6 8 11 12 10 4 4 4 3 4 6 4 6 6 6 6 6 6 2 3 3 6 12 17 15 10 9 15 15 17 17 16
6 6 5 6 5 6 4 5 5 5 5 5 5 6 5 5 5 5 4 4 4 4 3 6 2 4 3 4 14 15 8 6 15 15 19 18 17 19
5 6 6 6 8 11 3 4 5 6 8 12 12 14 16 18 14 4 3 7 6 4 3 3 3 3 3 5 4 7 7 18 19 19 19 16 19 20
6 6 13 8 11 11 5 4 6 5 4 5 5 7 12 10 13 4 2 2 2 3 2 3 4 4 5 3 2 4 6 11 20 18 19 20 20 6
4 4 4 11 12 11 12 4 6 7 8 4 4 5 5 5 4 3 1 3 2 4 5 4 2 2 3 8 2 3 6 6 4 8 17 18 17 15
5 4 5 12 11 11 10 12 14 13 3 3 4 4 4 4 3 3 3 4 4 7 7 8 5 6 7 9 10 4 5 6 5 6 5 12 17 14
5 7 11 13 13 11 11 13 14 2 3 3 5 3 3 3 3 3 4 6 7 7 6 5 6 7 7 9 10 9 13 5 8 8 3 5 8 6
10 7 8 11 12 9 8 6 3 4 4 4 3 3 4 3 3 3 4 5 6 6 5 6 6 6 8 8 8 10 8 7 6 7 8 8 8 7
7 4 4 4 4 4 4 4 4 3 3 3 3 6 5 7 5 3 4 5 7 7 7 5 6 8 8 10 10 10 10 9 9 8 7 10 8 7
6 4 5 6 6 5 4 3 2 4 2 3 3 4 5 5 5 5 5 6 7 8 8 7 6 6 6 9 18 12 10 10 9 8 8 10 11 6
7 5 5 5 5 4 3 3 3 3 2 3 4 4 5 5 8 6 7 7 8 8 9 7 6 7 9 11 7 15 9 8 7 8 8 9 11 10
6 6 6 5 4 4 3 3 3 1 2 4 4 4 5 6 7 7 7 8 9 9 9 7 7 9 10 12 9 8 12 7 6 9 10 9 11 20
6 6 6 5 4 3 3 3 3 3 4 4 4 5 5 6 8 7 8 16 16 9 10 10 10 19 9 6 8 11 8 21 19 11 7 8 10 9
6 5 5 4 4 4 4 3 3 4 5 5 5 5 6 6 7 8 9 10 10 10 11 10 10 7 7 10 13 14 11 8 12 22 25 22 9 8
6 5 5 5 4 4 4 3 4 5 5 5 5 6 6 7 8 9 10 10 11 11 11 11 9 8 10 10 14 11 14 13 8 8 11 21 26 28
Wind_Direction
309 319 305 294 300 293 303 309 313 321 311 32 8 2 354 1 6 1 347 4 5 4 12 15 19 25 27 25 18 5 28 24 23 11 9 9 10 9
304 331 321 305 311 323 321 318 335 165 268 8 327 0 2 354 357 354 352 15 359 2 8 14 14 20 9 21 17 16 17 13 12 6 1 5 360 360
309 319 308 313 312 323 330 325 310 305 275 302 329 327 351 351 345 337 340 10 345 4 1 10 6 10 10 13 14 23 18 12 7 16 3 356 356 349
284 311 305 331 325 331 330 322 308 304 282 295 289 306 313 315 316 335 339 346 347 356 6 3 360 6 3 10 12 18 12 8 5 7 21 12 2 353
251 279 297 325 324 338 337 330 326 317 324 329 311 317 316 320 316 347 343 335 334 341 6 2 2 358 360 357 5 14 8 2 358 5 11 358 11 344
237 240 264 278 15 319 303 320 342 338 330 318 305 297 320 312 322 337 358 358 333 330 348 4 3 353 350 349 357 3 359 353 354 360 352 352 345 336
242 251 235 203 247 262 280 299 312 322 325 326 318 317 310 329 328 328 346 309 299 272 337 328 319 311 326 341 339 347 344 343 335 346 343 338 338 330
237 248 284 285 268 250 284 289 278 260 256 265 274 297 291 297 314 324 318 326 328 350 341 305 301 323 320 317 328 333 332 334 324 343 335 332 333 326
218 230 249 261 281 247 272 300 304 307 308 293 267 256 286 307 330 322 318 311 304 306 305 296 281 292 283 308 316 325 322 330 325 330 327 326 323 320
217 222 224 243 253 261 222 257 279 293 285 275 268 268 253 257 261 272 255 285 294 287 278 286 283 284 294 298 303 310 316 323 325 322 324 319 320 318
221 227 226 232 242 271 266 275 270 271 282 292 304 307 302 296 293 262 275 301 304 287 259 249 308 299 263 288 297 308 331 323 322 318 315 314 317 313
218 223 242 240 238 253 249 248 272 271 277 286 300 309 297 286 290 290 271 239 257 316 294 21 332 347 324 299 331 324 310 304 310 310 313 312 309 304
217 220 224 253 253 252 266 247 260 267 284 293 294 285 287 295 288 300 252 158 202 249 289 322 312 304 255 302 289 294 288 294 292 301 299 300 299 298
216 209 229 253 256 263 269 279 284 292 275 277 282 272 276 273 271 267 277 295 272 269 281 279 271 279 283 283 291 297 292 286 277 282 285 293 299 300
217 231 250 258 257 272 283 280 283 257 264 270 264 256 237 245 279 276 271 264 260 253 254 239 243 259 255 267 279 289 297 297 288 279 267 289 286 282
234 243 248 249 245 251 266 272 249 229 223 231 239 252 267 283 282 254 280 286 276 275 245 240 248 253 271 263 268 277 276 274 283 286 286 282 276 264
210 201 222 227 230 232 240 241 238 242 239 232 243 281 284 294 287 287 286 285 275 283 286 276 258 250 258 268 267 262 267 266 268 276 275 281 276 263
217 198 217 218 226 226 229 236 231 269 239 258 264 268 287 286 290 284 275 269 276 279 278 277 271 266 265 255 243 262 263 265 267 266 261 267 278 263
233 223 222 219 221 212 204 200 210 215 255 259 258 264 261 265 288 279 273 270 269 269 270 265 251 253 269 266 258 243 245 254 260 260 253 253 268 274
217 224 224 209 212 206 200 205 201 209 250 256 259 263 263 261 269 264 260 260 265 269 270 259 241 243 248 260 269 264 247 254 242 263 269 267 267 277
222 223 223 201 192 201 201 203 203 236 252 248 249 258 257 258 268 265 267 276 277 275 273 267 251 252 253 258 257 265 253 239 245 248 259 262 272 278
212 209 201 193 194 195 202 189 205 250 257 256 253 253 259 259 267 272 270 272 273 266 264 267 271 259 245 245 260 270 276 266 250 257 260 255 255 260
211 195 193 194 193 195 194 199 218 245 255 255 260 260 261 268 266 266 268 271 271 272 268 270 266 250 246 244 250 260 263 269 266 262 258 252 257 259